sat.trackr.live / text

‹ back to catalog

ICEYE-X53

NORAD 64584 · 2025-135BJ

PAYLOAD ACTIVE UNKNOWN

§ Identity

Operator
Country
FIN
Launch date
2025-06-23
Launch site
AFWTR
Launch vehicle
Mass (kg)
RCS (m²)

External: N2YO · Heavens-Above · Gunter

§ Orbital elements

Epoch: 2026-09-21T21:26:30.387264Z

Period
95.94 min
Inclination
97.7303°
Eccentricity
0.0001388
Mean motion
15.00905048 rev/d
Perigee alt
563.1 km
Apogee alt
565.1 km
Semi-major
6,942.2 km
B*
1.4474e-4
RAAN
21.2034°
Arg perigee
138.3486°
Mean anomaly
221.7843°
Rev number
6,858

§ Raw data

ICEYE-X531 64584U 25135BJ  26264.89340726  .00001783  00000+0  14474-3 0  99932 64584  97.7303  21.2034 0001388 138.3486 221.7843 15.00905048 68589

JSON: /api/v1/satellites/64584 · /tle

For live sub-satellite position, see the globe view (requires WebGL).

§ Visibility from observer

Set your observer location to see the next 7 days of passes ≥ 10°. The values pass through the URL so the page stays shareable.

No JS? Fill the form by hand. The geolocation button needs JavaScript.

§ Radio — SatNOGS DB

ModeDescriptionDownlinkUplink
FM S-band telemetry 2.265 GHz

1 transmitter · refreshed weekly from db.satnogs.org